TimeCDT,TemperatureF,Dew PointF,Humidity,Sea Level PressureIn,VisibilityMPH,Wind Direction,Wind SpeedMPH,Gust SpeedMPH,PrecipitationIn,Events,Conditions,WindDirDegrees,DateUTC
12:53 AM,30.9,14.0,50,30.03,10.0,WNW,3.5,-,N/A,,Clear,290,2013-04-01 05:53:00
1:53 AM,30.0,15.1,54,30.05,10.0,WNW,4.6,-,N/A,,Clear,290,2013-04-01 06:53:00
2:53 AM,28.9,17.1,61,30.07,10.0,WNW,3.5,-,N/A,,Mostly Cloudy,300,2013-04-01 07:53:00
3:53 AM,28.0,15.1,58,30.08,10.0,NW,5.8,-,N/A,,Scattered Clouds,310,2013-04-01 08:53:00
4:53 AM,27.0,15.1,61,30.11,10.0,NW,6.9,-,N/A,,Clear,320,2013-04-01 09:53:00
5:53 AM,27.0,12.0,53,30.13,10.0,NNW,4.6,-,N/A,,Clear,330,2013-04-01 10:53:00
6:53 AM,26.1,12.0,55,30.16,10.0,Calm,Calm,-,N/A,,Unknown,0,2013-04-01 11:53:00
7:53 AM,28.0,15.1,58,30.19,10.0,WNW,4.6,-,N/A,,Clear,290,2013-04-01 12:53:00
8:53 AM,28.9,15.1,56,30.20,10.0,WNW,9.2,-,0.00,,Clear,290,2013-04-01 13:53:00
9:53 AM,30.0,12.9,49,30.21,10.0,WNW,12.7,-,0.00,,Partly Cloudy,290,2013-04-01 14:53:00
10:53 AM,30.9,10.9,43,30.22,10.0,NW,11.5,19.6,0.00,,Partly Cloudy,310,2013-04-01 15:53:00
11:53 AM,34.0,12.0,40,30.20,10.0,NNW,10.4,18.4,0.00,Rain,Light Rain,330,2013-04-01 16:53:00
12:53 PM,35.1,12.9,40,30.23,10.0,North,10.4,19.6,0.00,Rain,Light Rain,350,2013-04-01 17:53:00
1:53 PM,34.0,12.0,40,30.22,10.0,West,5.8,16.1,0.00,Rain,Light Rain,280,2013-04-01 18:53:00
2:53 PM,36.0,12.9,39,30.21,10.0,WSW,11.5,-,0.00,Rain,Light Rain,250,2013-04-01 19:53:00
3:53 PM,37.0,14.0,39,30.22,10.0,WNW,11.5,-,0.00,Rain,Light Rain,290,2013-04-01 20:53:00
4:53 PM,37.0,12.9,37,30.21,10.0,WNW,6.9,19.6,0.00,Rain,Light Rain,300,2013-04-01 21:53:00
5:53 PM,35.1,12.0,39,30.22,10.0,WNW,11.5,-,0.00,Rain,Light Rain,290,2013-04-01 22:53:00
6:53 PM,33.1,12.0,42,30.22,10.0,West,8.1,-,0.00,,Clear,260,2013-04-01 23:53:00
7:53 PM,30.9,12.0,46,30.22,10.0,WNW,4.6,-,N/A,,Clear,290,2013-04-02 00:53:00
8:53 PM,30.0,12.0,47,30.24,10.0,WNW,3.5,-,N/A,,Clear,290,2013-04-02 01:53:00
9:53 PM,30.0,12.9,49,30.25,10.0,West,3.5,-,N/A,,Clear,280,2013-04-02 02:53:00
10:53 PM,28.0,15.1,58,30.26,10.0,SW,3.5,-,N/A,,Clear,220,2013-04-02 03:53:00
11:53 PM,27.0,16.0,63,30.26,10.0,SSW,3.5,-,N/A,,Clear,210,2013-04-02 04:53:00